GAP2104 RPMD-RPMZ

Flight info

Callsign GAP2104
Flight time 1h 0m
Altitude 26000
Route LATIA3R LATIA W10A COT W10 GOSTO GOSTO2W
Aircraft A21N/M-SDE3FGHIRWY/LB1

Departure

Time 2026-04-21 08:32
Airport Francisco Bangoy International Airport (RPMD)

Arrival

Time 2026-04-21 09:32
Airport Zamboanga International Airport (RPMZ)
Time Latitude Longitude Altitude Speed Heading
2026-04-21 08:12 7.12945 125.64552 119 ft 0 kts 319°
2026-04-21 08:22 7.12936 125.64561 119 ft 2 kts 319°
2026-04-21 08:23 7.12924 125.64571 119 ft 2 kts 319°
2026-04-21 08:23 7.12913 125.64580 119 ft 2 kts 319°
2026-04-21 08:23 7.12901 125.64590 119 ft 2 kts 319°
2026-04-21 08:23 7.12890 125.64600 119 ft 2 kts 320°
2026-04-21 08:24 7.12875 125.64604 119 ft 2 kts 13°
2026-04-21 08:24 7.12865 125.64599 119 ft 0 kts 46°
2026-04-21 08:24 7.12860 125.64593 119 ft 1 kts 50°
2026-04-21 08:26 7.12861 125.64593 119 ft 0 kts 50°
2026-04-21 08:26 7.12864 125.64597 119 ft 1 kts 50°
2026-04-21 08:26 7.12873 125.64609 119 ft 2 kts 49°
2026-04-21 08:27 7.12889 125.64627 119 ft 4 kts 49°
2026-04-21 08:27 7.12914 125.64655 119 ft 6 kts 49°
2026-04-21 08:27 7.12945 125.64690 119 ft 7 kts 49°
2026-04-21 08:27 7.12980 125.64730 119 ft 8 kts 49°
2026-04-21 08:28 7.13012 125.64780 119 ft 8 kts 81°
2026-04-21 08:28 7.12980 125.64834 119 ft 9 kts 135°
2026-04-21 08:28 7.12927 125.64881 119 ft 10 kts 138°
2026-04-21 08:28 7.12881 125.64937 119 ft 10 kts 100°
2026-04-21 08:29 7.12916 125.65002 119 ft 11 kts 47°
2026-04-21 08:29 7.12970 125.65063 119 ft 12 kts 49°
2026-04-21 08:29 7.13026 125.65130 119 ft 12 kts 50°
2026-04-21 08:29 7.13084 125.65198 119 ft 13 kts 50°
2026-04-21 08:30 7.13145 125.65268 119 ft 13 kts 49°
2026-04-21 08:30 7.13208 125.65341 119 ft 13 kts 49°
2026-04-21 08:30 7.13272 125.65415 119 ft 14 kts 50°
2026-04-21 08:30 7.13334 125.65486 119 ft 11 kts 43°
2026-04-21 08:31 7.13398 125.65515 119 ft 5 kts 17°
2026-04-21 08:31 7.13398 125.65530 119 ft 3 kts 156°
2026-04-21 08:31 7.13367 125.65523 119 ft 5 kts 216°
2026-04-21 08:31 7.13340 125.65494 119 ft 5 kts 229°
2026-04-21 08:32 7.13283 125.65429 119 ft 37 kts 229°
2026-04-21 08:32 7.12934 125.65023 120 ft 111 kts 229°
2026-04-21 08:32 7.12295 125.64277 169 ft 161 kts 229°
2026-04-21 08:32 7.11580 125.63439 805 ft 157 kts 229°
2026-04-21 08:33 7.10878 125.62612 1442 ft 157 kts 229°
2026-04-21 08:33 7.10159 125.61774 1951 ft 157 kts 226°
2026-04-21 08:33 7.09200 125.61227 2144 ft 168 kts 197°
2026-04-21 08:33 7.08017 125.60907 2381 ft 179 kts 198°
2026-04-21 08:34 7.06789 125.60507 2631 ft 190 kts 201°
2026-04-21 08:34 7.05521 125.60019 2891 ft 201 kts 203°
2026-04-21 08:34 7.04184 125.59450 3134 ft 214 kts 204°
2026-04-21 08:34 7.02772 125.58815 3341 ft 229 kts 205°
2026-04-21 08:35 7.01268 125.58118 3556 ft 245 kts 206°
2026-04-21 08:35 6.99649 125.57355 3827 ft 260 kts 206°
2026-04-21 08:35 6.97974 125.56559 4232 ft 268 kts 206°
2026-04-21 08:35 6.96320 125.55770 4983 ft 260 kts 206°
2026-04-21 08:36 6.94726 125.55009 5730 ft 250 kts 206°
2026-04-21 08:36 6.93148 125.54255 6208 ft 251 kts 206°
2026-04-21 08:36 6.91546 125.53487 6642 ft 254 kts 206°
2026-04-21 08:36 6.89937 125.52718 7064 ft 256 kts 206°
2026-04-21 08:37 6.88315 125.51940 7468 ft 258 kts 206°
2026-04-21 08:37 6.86699 125.51165 7851 ft 260 kts 206°
2026-04-21 08:37 6.85038 125.50369 8226 ft 261 kts 206°
2026-04-21 08:37 6.83392 125.49569 8557 ft 263 kts 208°
2026-04-21 08:38 6.81754 125.48708 8877 ft 265 kts 208°
2026-04-21 08:38 6.80118 125.47835 9210 ft 267 kts 208°
2026-04-21 08:38 6.78478 125.46961 9525 ft 268 kts 208°
2026-04-21 08:38 6.76812 125.46074 9828 ft 269 kts 208°
2026-04-21 08:39 6.75143 125.45185 10102 ft 271 kts 208°
2026-04-21 08:39 6.73564 125.44115 10347 ft 273 kts 228°
2026-04-21 08:39 6.72634 125.42477 10587 ft 275 kts 255°
2026-04-21 08:39 6.72527 125.40540 10762 ft 282 kts 280°
2026-04-21 08:40 6.73163 125.38638 10896 ft 289 kts 290°
2026-04-21 08:40 6.73772 125.37071 10997 ft 295 kts 290°
2026-04-21 08:40 6.74531 125.35088 11120 ft 302 kts 289°
2026-04-21 08:40 6.75248 125.33191 11232 ft 308 kts 289°
2026-04-21 08:41 6.76060 125.31023 11354 ft 315 kts 289°
2026-04-21 08:41 6.76849 125.28908 11468 ft 321 kts 289°
2026-04-21 08:41 6.77636 125.26794 11574 ft 327 kts 289°
2026-04-21 08:41 6.78442 125.24625 11679 ft 332 kts 289°
2026-04-21 08:42 6.79254 125.22438 11779 ft 338 kts 289°
2026-04-21 08:42 6.80084 125.20198 11876 ft 343 kts 289°
2026-04-21 08:42 6.80928 125.17922 11968 ft 348 kts 289°
2026-04-21 08:42 6.81778 125.15630 12054 ft 353 kts 289°
2026-04-21 08:43 6.82646 125.13286 12136 ft 357 kts 289°
2026-04-21 08:43 6.83521 125.10923 12214 ft 361 kts 289°
2026-04-21 08:43 6.84407 125.08531 12299 ft 365 kts 289°
2026-04-21 08:43 6.85293 125.06137 12428 ft 366 kts 289°
2026-04-21 08:44 6.86184 125.03731 12572 ft 367 kts 289°
2026-04-21 08:44 6.87079 125.01311 12708 ft 368 kts 289°
2026-04-21 08:44 6.87978 124.98881 12835 ft 368 kts 289°
2026-04-21 08:44 6.88885 124.96429 12938 ft 369 kts 289°
2026-04-21 08:45 6.89794 124.93964 13039 ft 370 kts 289°
2026-04-21 08:45 6.90700 124.91509 13142 ft 371 kts 289°
2026-04-21 08:45 6.91608 124.89057 13231 ft 372 kts 289°
2026-04-21 08:45 6.92508 124.86626 13329 ft 372 kts 289°
2026-04-21 08:46 6.93423 124.84151 13420 ft 372 kts 289°
2026-04-21 08:46 6.94334 124.81690 13502 ft 374 kts 289°
2026-04-21 08:46 6.95246 124.79218 13593 ft 374 kts 289°
2026-04-21 08:46 6.96164 124.76732 13673 ft 375 kts 289°
2026-04-21 08:47 6.97085 124.74236 13763 ft 376 kts 289°
2026-04-21 08:47 6.97996 124.71769 13852 ft 376 kts 289°
2026-04-21 08:47 6.98925 124.69254 13939 ft 377 kts 289°
2026-04-21 08:47 6.99834 124.66793 14011 ft 377 kts 289°
2026-04-21 08:48 7.00753 124.64302 14080 ft 378 kts 289°
2026-04-21 08:48 7.01680 124.61792 14154 ft 379 kts 289°
2026-04-21 08:48 7.02609 124.59279 14229 ft 379 kts 289°
2026-04-21 08:48 7.03532 124.56778 14301 ft 379 kts 289°
2026-04-21 08:49 7.04466 124.54248 14363 ft 380 kts 289°
2026-04-21 08:49 7.05391 124.51743 14421 ft 380 kts 289°
2026-04-21 08:49 7.06320 124.49223 14483 ft 381 kts 289°
2026-04-21 08:49 7.07247 124.46712 14544 ft 381 kts 289°
2026-04-21 08:50 7.08179 124.44184 14598 ft 382 kts 289°
2026-04-21 08:50 7.09107 124.41667 14657 ft 382 kts 289°
2026-04-21 08:50 7.10049 124.39108 14716 ft 382 kts 289°
2026-04-21 08:50 7.10980 124.36583 14771 ft 383 kts 289°
2026-04-21 08:51 7.11933 124.33995 14825 ft 383 kts 289°
2026-04-21 08:51 7.12866 124.31460 14863 ft 382 kts 289°
2026-04-21 08:51 7.13805 124.28914 14870 ft 383 kts 289°
2026-04-21 08:51 7.14740 124.26377 14908 ft 384 kts 289°
2026-04-21 08:52 7.15665 124.23850 14957 ft 384 kts 288°
2026-04-21 08:52 7.16301 124.21236 14987 ft 382 kts 277°
2026-04-21 08:52 7.16462 124.18564 15016 ft 382 kts 267°
2026-04-21 08:52 7.16242 124.15904 15058 ft 382 kts 263°
2026-04-21 08:53 7.15939 124.13235 15094 ft 380 kts 262°
2026-04-21 08:53 7.15629 124.10594 15165 ft 378 kts 262°
2026-04-21 08:53 7.15327 124.07993 15492 ft 367 kts 263°
2026-04-21 08:53 7.15042 124.05494 15848 ft 353 kts 263°
2026-04-21 08:54 7.14769 124.03082 16193 ft 340 kts 263°
2026-04-21 08:54 7.14510 124.00770 16519 ft 327 kts 263°
2026-04-21 08:54 7.14260 123.98537 16810 ft 314 kts 263°
2026-04-21 08:54 7.14018 123.96366 16945 ft 310 kts 263°
2026-04-21 08:55 7.13780 123.94228 16989 ft 310 kts 263°
2026-04-21 08:55 7.13538 123.92066 17016 ft 311 kts 262°
2026-04-21 08:55 7.13297 123.89904 17051 ft 311 kts 263°
2026-04-21 08:55 7.13053 123.87717 17095 ft 311 kts 263°
2026-04-21 08:56 7.12811 123.85549 17133 ft 312 kts 263°
2026-04-21 08:56 7.12569 123.83381 17170 ft 312 kts 263°
2026-04-21 08:56 7.12328 123.81211 17204 ft 312 kts 262°
2026-04-21 08:56 7.12083 123.79011 17229 ft 312 kts 262°
2026-04-21 08:57 7.11842 123.76865 17258 ft 313 kts 262°
2026-04-21 08:57 7.11597 123.74674 17274 ft 314 kts 262°
2026-04-21 08:57 7.11350 123.72470 17267 ft 316 kts 262°
2026-04-21 08:57 7.11102 123.70253 17261 ft 319 kts 263°
2026-04-21 08:58 7.10852 123.68018 17255 ft 321 kts 263°
2026-04-21 08:58 7.10602 123.65776 17248 ft 324 kts 263°
2026-04-21 08:58 7.10350 123.63512 17238 ft 326 kts 263°
2026-04-21 08:58 7.10095 123.61211 17230 ft 329 kts 263°
2026-04-21 08:59 7.09840 123.58922 17216 ft 331 kts 263°
2026-04-21 08:59 7.09581 123.56609 17202 ft 333 kts 263°
2026-04-21 08:59 7.09321 123.54279 17188 ft 335 kts 263°
2026-04-21 08:59 7.09058 123.51939 17173 ft 337 kts 263°
2026-04-21 09:00 7.08797 123.49599 17155 ft 340 kts 263°
2026-04-21 09:00 7.08532 123.47221 17137 ft 342 kts 263°
2026-04-21 09:00 7.08263 123.44820 17114 ft 344 kts 263°
2026-04-21 09:00 7.07995 123.42437 17082 ft 346 kts 263°
2026-04-21 09:01 7.07723 123.39997 17057 ft 349 kts 263°
2026-04-21 09:01 7.07451 123.37553 16981 ft 354 kts 263°
2026-04-21 09:01 7.07174 123.35079 16826 ft 362 kts 263°
2026-04-21 09:01 7.06886 123.32514 16666 ft 370 kts 263°
2026-04-21 09:02 7.06594 123.29913 16505 ft 379 kts 263°
2026-04-21 09:02 7.06294 123.27238 16341 ft 385 kts 263°
2026-04-21 09:02 7.05994 123.24553 16174 ft 388 kts 263°
2026-04-21 09:03 7.05381 123.19141 15832 ft 387 kts 263°
2026-04-21 09:03 7.05074 123.16444 15658 ft 386 kts 263°
2026-04-21 09:03 7.04766 123.13718 15479 ft 385 kts 263°
2026-04-21 09:03 7.04465 123.11056 15302 ft 383 kts 263°
2026-04-21 09:04 7.04162 123.08375 15122 ft 382 kts 263°
2026-04-21 09:04 7.03864 123.05720 14940 ft 381 kts 263°
2026-04-21 09:04 7.03564 123.03070 14756 ft 380 kts 263°
2026-04-21 09:04 7.03271 123.00446 14572 ft 378 kts 263°
2026-04-21 09:05 7.02979 122.97829 14380 ft 377 kts 263°
2026-04-21 09:05 7.02684 122.95208 14171 ft 376 kts 263°
2026-04-21 09:05 7.02390 122.92600 13863 ft 374 kts 263°
2026-04-21 09:05 7.02098 122.90012 13468 ft 372 kts 263°
2026-04-21 09:06 7.01808 122.87433 13024 ft 370 kts 263°
2026-04-21 09:06 7.01512 122.84852 12552 ft 370 kts 263°
2026-04-21 09:06 7.01217 122.82281 12069 ft 369 kts 263°
2026-04-21 09:06 7.00924 122.79714 11578 ft 368 kts 263°
2026-04-21 09:07 7.00636 122.77180 11088 ft 365 kts 263°
2026-04-21 09:07 7.00347 122.74639 10664 ft 361 kts 263°
2026-04-21 09:07 7.00064 122.72154 10413 ft 351 kts 263°
2026-04-21 09:07 6.99791 122.69758 10272 ft 338 kts 262°
2026-04-21 09:08 6.99529 122.67459 10131 ft 325 kts 262°
2026-04-21 09:08 6.99278 122.65250 9906 ft 316 kts 262°
2026-04-21 09:08 6.99026 122.63045 9579 ft 311 kts 262°
2026-04-21 09:08 6.98780 122.60889 9270 ft 306 kts 262°
2026-04-21 09:09 6.98542 122.58794 8967 ft 301 kts 262°
2026-04-21 09:09 6.98306 122.56717 8661 ft 296 kts 262°
2026-04-21 09:09 6.98074 122.54681 8351 ft 292 kts 262°
2026-04-21 09:09 6.97841 122.52635 8001 ft 289 kts 262°
2026-04-21 09:10 6.97600 122.50647 7616 ft 287 kts 259°
2026-04-21 09:10 6.97090 122.48701 7246 ft 285 kts 251°
2026-04-21 09:10 6.96457 122.46800 6881 ft 282 kts 250°
2026-04-21 09:10 6.95836 122.44929 6510 ft 281 kts 251°
2026-04-21 09:11 6.95238 122.43063 6155 ft 278 kts 251°
2026-04-21 09:11 6.94669 122.41233 6029 ft 277 kts 252°
2026-04-21 09:11 6.94098 122.39366 6025 ft 278 kts 252°
2026-04-21 09:11 6.93527 122.37479 6024 ft 278 kts 252°
2026-04-21 09:12 6.92970 122.35628 6022 ft 279 kts 252°
2026-04-21 09:12 6.92404 122.33746 5985 ft 275 kts 252°
2026-04-21 09:12 6.91859 122.31933 5654 ft 274 kts 252°
2026-04-21 09:12 6.91305 122.30090 5300 ft 271 kts 252°
2026-04-21 09:13 6.90841 122.28271 5039 ft 266 kts 261°
2026-04-21 09:13 6.90799 122.26426 4772 ft 262 kts 272°
2026-04-21 09:13 6.90958 122.24625 4555 ft 255 kts 274°
2026-04-21 09:13 6.91123 122.22872 4281 ft 248 kts 273°
2026-04-21 09:14 6.91249 122.21177 3901 ft 242 kts 272°
2026-04-21 09:14 6.91354 122.19506 3563 ft 235 kts 272°
2026-04-21 09:14 6.91453 122.17889 3177 ft 230 kts 272°
2026-04-21 09:14 6.91556 122.16289 2835 ft 223 kts 272°
2026-04-21 09:15 6.91657 122.14741 2946 ft 222 kts 272°
2026-04-21 09:15 6.91760 122.13142 3029 ft 238 kts 272°
2026-04-21 09:15 6.91872 122.11424 3463 ft 244 kts 272°
2026-04-21 09:15 6.91984 122.09723 3885 ft 246 kts 272°
2026-04-21 09:16 6.92099 122.07989 4045 ft 249 kts 272°
2026-04-21 09:16 6.92207 122.06268 4051 ft 248 kts 271°
2026-04-21 09:16 6.92067 122.04537 4036 ft 246 kts 246°
2026-04-21 09:16 6.90993 122.03220 4056 ft 252 kts 211°
2026-04-21 09:17 6.89264 122.02661 4062 ft 266 kts 183°
2026-04-21 09:17 6.87454 122.03004 4055 ft 271 kts 155°
2026-04-21 09:17 6.86005 122.04249 4048 ft 276 kts 124°
2026-04-21 09:17 6.85229 122.06008 4054 ft 278 kts 111°
2026-04-21 09:18 6.84527 122.07832 4045 ft 277 kts 113°
2026-04-21 09:18 6.83798 122.09643 4040 ft 277 kts 113°
2026-04-21 09:18 6.83062 122.11445 4036 ft 277 kts 114°
2026-04-21 09:18 6.82320 122.13251 4033 ft 277 kts 114°
2026-04-21 09:19 6.81584 122.15032 4030 ft 277 kts 114°
2026-04-21 09:19 6.80846 122.16815 4028 ft 277 kts 114°
2026-04-21 09:19 6.80096 122.18630 4027 ft 277 kts 114°
2026-04-21 09:19 6.79354 122.20425 4025 ft 277 kts 114°
2026-04-21 09:20 6.78615 122.22217 4024 ft 277 kts 114°
2026-04-21 09:20 6.77867 122.24010 4022 ft 277 kts 116°
2026-04-21 09:20 6.77083 122.25797 4014 ft 278 kts 107°
2026-04-21 09:20 6.77093 122.27715 4006 ft 280 kts 72°
2026-04-21 09:21 6.78147 122.29279 4001 ft 264 kts 36°
2026-04-21 09:21 6.79814 122.29997 4024 ft 259 kts 13°
2026-04-21 09:21 6.81548 122.30449 4022 ft 259 kts 15°
2026-04-21 09:21 6.83281 122.31047 4019 ft 260 kts 24°
2026-04-21 09:22 6.84668 122.32175 4001 ft 259 kts 59°
2026-04-21 09:22 6.85136 122.33887 4012 ft 256 kts 96°
2026-04-21 09:22 6.84537 122.35548 4027 ft 253 kts 126°
2026-04-21 09:22 6.83445 122.36934 4025 ft 251 kts 136°
2026-04-21 09:23 6.81972 122.37835 4015 ft 247 kts 166°
2026-04-21 09:23 6.80283 122.38203 4025 ft 247 kts 169°
2026-04-21 09:23 6.78596 122.38574 4023 ft 247 kts 168°
2026-04-21 09:23 6.76909 122.38940 4016 ft 246 kts 177°
2026-04-21 09:24 6.75267 122.38574 4003 ft 239 kts 213°
2026-04-21 09:24 6.74132 122.37387 4016 ft 235 kts 241°
2026-04-21 09:24 6.73683 122.35816 4019 ft 237 kts 268°
2026-04-21 09:24 6.74010 122.34199 3975 ft 236 kts 295°
2026-04-21 09:25 6.75051 122.32923 3644 ft 240 kts 323°
2026-04-21 09:25 6.76577 122.32266 3314 ft 241 kts 343°
2026-04-21 09:25 6.78211 122.31812 3123 ft 240 kts 342°
2026-04-21 09:25 6.79824 122.31353 2798 ft 240 kts 342°
2026-04-21 09:26 6.81434 122.30890 2549 ft 237 kts 342°
2026-04-21 09:26 6.83038 122.30423 2535 ft 239 kts 343°
2026-04-21 09:26 6.84651 122.29955 2527 ft 240 kts 343°
2026-04-21 09:26 6.86271 122.29506 2522 ft 240 kts 342°
2026-04-21 09:27 6.87890 122.29041 2521 ft 240 kts 341°
2026-04-21 09:27 6.89491 122.28571 2510 ft 231 kts 341°
2026-04-21 09:27 6.90841 122.27848 2566 ft 215 kts 311°
2026-04-21 09:27 6.91392 122.26508 2552 ft 202 kts 272°
2026-04-21 09:28 6.91297 122.25183 2555 ft 177 kts 261°
2026-04-21 09:28 6.91194 122.24004 2515 ft 166 kts 265°
2026-04-21 09:28 6.91174 122.22842 2517 ft 164 kts 268°
2026-04-21 09:28 6.91207 122.21717 2505 ft 157 kts 271°
2026-04-21 09:29 6.91264 122.20624 2520 ft 156 kts 271°
2026-04-21 09:29 6.91331 122.19530 2476 ft 157 kts 272°
2026-04-21 09:29 6.91408 122.18436 2269 ft 155 kts 270°
2026-04-21 09:29 6.91479 122.17351 2047 ft 155 kts 270°
2026-04-21 09:30 6.91551 122.16271 1847 ft 154 kts 271°
2026-04-21 09:30 6.91619 122.15208 1636 ft 151 kts 271°
2026-04-21 09:30 6.91688 122.14162 1439 ft 147 kts 271°
2026-04-21 09:30 6.91756 122.13129 1251 ft 146 kts 271°
2026-04-21 09:31 6.91824 122.12117 1062 ft 146 kts 271°
2026-04-21 09:31 6.91892 122.11093 867 ft 145 kts 271°
2026-04-21 09:31 6.91966 122.10085 683 ft 145 kts 272°
2026-04-21 09:31 6.92043 122.09071 442 ft 144 kts 271°
2026-04-21 09:32 6.92106 122.08078 257 ft 142 kts 271°
2026-04-21 09:32 6.92171 122.07089 103 ft 140 kts 271°
2026-04-21 09:32 6.92223 122.06211 74 ft 92 kts 274°
2026-04-21 09:32 6.92248 122.05856 75 ft 22 kts 273°
2026-04-21 09:33 6.92256 122.05718 75 ft 19 kts 272°
2026-04-21 09:33 6.92253 122.05620 75 ft 8 kts 263°
2026-04-21 09:33 6.92254 122.05600 75 ft 1 kts 326°
2026-04-21 09:33 6.92261 122.05605 75 ft 2 kts 72°
2026-04-21 09:34 6.92263 122.05631 75 ft 4 kts 88°
2026-04-21 09:34 6.92262 122.05664 75 ft 5 kts 92°
2026-04-21 09:34 6.92260 122.05705 75 ft 7 kts 94°
2026-04-21 09:34 6.92256 122.05766 75 ft 10 kts 94°
2026-04-21 09:35 6.92250 122.05846 75 ft 12 kts 94°
2026-04-21 09:35 6.92244 122.05932 74 ft 11 kts 95°
2026-04-21 09:35 6.92209 122.05991 74 ft 9 kts 138°
2026-04-21 09:35 6.92162 122.06033 74 ft 8 kts 137°
2026-04-21 09:36 6.92144 122.06087 74 ft 8 kts 96°
2026-04-21 09:36 6.92137 122.06137 74 ft 5 kts 109°
2026-04-21 09:36 6.92105 122.06162 74 ft 6 kts 155°
2026-04-21 09:36 6.92069 122.06178 74 ft 3 kts 155°
2026-04-21 09:37 6.92055 122.06184 74 ft 0 kts 156°